Location: Bernay
(48.6766°N, 2.9386°E)
Time: 01:57:36
(UTC+00:00)

SJ 16-02 - Pass Details

Date: 28 April 2026
Orbit: 582 x 592 km, 75.0° (Epoch: 19 May)

Event Time Altitude Azimuth Distance (km) Brightness Sun altitude
Rises 22:18:29 0° 321° (NW) 2,818 6.0 -24.0°
Reaches altitude 10° 22:21:40 10° 296° (WNW) 1,910 4.5 -24.2°
Maximum altitude 22:23:47 14° 266° (W) 1,678 3.7 -24.4°
Enters shadow 22:24:50 13° 250° (WSW) 1,733 3.6 -24.4°
